Location: Marse
(42.1502°N, 110.9866°W)
Time: 09:33:19
(UTC+00:00)

ITUPSAT 1 - Pass Details

Date: 09 July 2022
Orbit: 701 x 711 km, 98.6° (Epoch: 07 August)

Event Time Altitude Azimuth Distance (km) Brightness Sun altitude
Rises 05:21:14 0° 355° (N) 3,113 ? -19.0°
Reaches altitude 10° 05:24:29 10° 331° (NNW) 2,191 ? -19.4°
Maximum altitude 05:26:57 14° 300° (WNW) 1,915 ? -19.6°
Drops below altitude 10° 05:29:26 10° 268° (W) 2,186 ? -19.8°
Sets 05:32:41 0° 244° (WSW) 3,101 ? -20.1°
